Simultaneous Nadir Overpasses (SNOs) Predictions

Prediction of SNOs between METOP-B and NOAA-19 Satellite Orbit:

Table of predicted SNOs for the next 14.0 days since TLE Epoch: 6/21/2019
Index Date (METOP-B) Time (METOP-B) Lat,Lon (METOP-B) SZA (METOP-B ) Date (NOAA-19) Time (NOAA-19) Lat,Lon (NOAA-19) SZA (NOAA-19 ) Distance(km) Time Diff (sec)
1 06/24/2019 07:16:24 79.31, 87.07 56.28 06/24/2019 07:15:16 79.31, 87.18 56.27 2.20 68
2 06/24/2019 08:07:05 -79.33,-105.47 123.71 06/24/2019 08:06:21 -79.30,-105.47 123.74 3.29 44
3 06/24/2019 08:57:46 79.30, 61.63 56.26 06/24/2019 08:57:17 79.32, 61.63 56.27 2.14 29
4 06/24/2019 09:48:27 -79.31,-130.92 123.72 06/24/2019 09:48:22 -79.30,-131.02 123.74 2.34 5
5 06/24/2019 10:39:07 79.32, 36.44 56.29 06/24/2019 10:39:17 79.29, 36.36 56.26 3.39 10
6 06/24/2019 11:29:49 -79.30,-156.37 123.74 06/24/2019 11:30:22 -79.28,-156.29 123.75 2.85 33
7 06/24/2019 12:20:30 79.27, 10.73 56.22 06/24/2019 12:21:18 79.30, 10.81 56.26 3.47 48
8 06/24/2019 13:11:11 -79.29, 178.19 123.76 06/24/2019 13:12:23 -79.28, 178.16 123.75 0.60 72
9 07/05/2019 06:48:26 79.34, 94.30 56.90 07/05/2019 06:47:20 79.34, 94.31 56.88 0.21 66
10 07/05/2019 07:39:08 -79.33, -98.50 123.13 07/05/2019 07:38:25 -79.33, -98.38 123.12 2.66 43
11 07/05/2019 08:29:48 79.33, 68.85 56.89 07/05/2019 08:29:21 79.35, 68.76 56.89 2.80 27
12 07/05/2019 09:20:30 -79.31,-123.95 123.14 07/05/2019 09:20:26 -79.34,-123.93 123.11 3.04 4
13 07/05/2019 10:11:10 79.32, 43.41 56.87 07/05/2019 10:11:21 79.32, 43.49 56.89 1.91 11
14 07/05/2019 11:01:51 -79.33,-149.14 123.11 07/05/2019 11:02:26 -79.31,-149.21 123.12 2.44 35
15 07/05/2019 11:52:32 79.30, 17.96 56.86 07/05/2019 11:53:22 79.33, 17.94 56.90 3.07 50
16 07/05/2019 12:43:13 -79.32,-174.58 123.12 07/05/2019 12:44:27 -79.32,-174.76 123.11 3.57 74




NCC Satellite Simultaneous Nadir Overpasses (SNOs) Prediction Service
